DW5785 Weather Reports


Display with metric or nautical units.
time (UTC)temp
F
wind
direction
speed
MPH
gust
MPH
rain 1hr
in
rain 24hr
in
rain mn
in
humidity
%
barometer
mb
20260503034509 55 81 4.0 6.0 0.00 0.00 0.00 53 1017.7
20260503034009 54 84 5.0 5.0 0.00 0.00 0.00 53 1017.8
20260503033511 54 78 4.0 5.0 0.00 0.00 0.00 53 1017.8
20260503033009 54 85 4.0 7.0 0.00 0.00 0.00 53 1017.8
20260503032509 54 79 2.0 5.0 0.00 0.00 0.00 53 1017.7
20260503032012 54 78 4.0 5.0 0.00 0.00 0.00 53 1017.8
20260503031510 54 92 2.0 6.0 0.00 0.00 0.00 53 1017.7
20260503031012 55 85 4.0 7.0 0.00 0.00 0.00 52 1017.7
20260503030514 55 89 6.0 7.0 0.00 0.00 0.00 52 1017.7
20260503030015 55 80 5.0 8.0 0.00 0.00 0.00 52 1017.7
20260503025509 55 73 6.0 8.0 0.00 0.00 0.00 51 1017.6
20260503025015 55 84 6.0 7.0 0.00 0.00 0.00 51 1017.7
20260503024518 55 87 5.0 9.0 0.00 0.00 0.00 50 1017.7
20260503024009 55 81 5.0 7.0 0.00 0.00 0.00 51 1017.7
20260503023511 55 82 4.0 6.0 0.00 0.00 0.00 51 1017.7
20260503023009 55 98 6.0 6.0 0.00 0.00 0.00 51 1017.8
20260503022512 55 85 4.0 6.0 0.00 0.00 0.00 51 1017.7
20260503022012 55 79 6.0 7.0 0.00 0.00 0.00 50 1017.8
20260503021512 55 84 6.0 7.0 0.00 0.00 0.00 50 1017.8
20260503021009 55 95 5.0 7.0 0.00 0.00 0.00 50 1017.8
20260503020511 56 87 5.0 6.0 0.00 0.00 0.00 50 1017.8
20260503020012 56 82 6.0 7.0 0.00 0.00 0.00 49 1017.9
20260503015509 56 85 5.0 6.0 0.00 0.00 0.00 49 1017.8
20260503015009 57 93 5.0 6.0 0.00 0.00 0.00 47 1017.9
20260503014509 57 83 5.0 8.0 0.00 0.00 0.00 47 1017.9
20260503014009 58 110 5.0 8.0 0.00 0.00 0.00 46 1017.9
20260503013514 58 122 5.0 7.0 0.00 0.00 0.00 46 1017.9
20260503013015 58 115 5.0 7.0 0.00 0.00 0.00 46 1017.9
20260503012518 58 113 4.0 7.0 0.00 0.00 0.00 46 1017.9
20260503012015 58 104 3.0 7.0 0.00 0.00 0.00 45 1018.0
20260503011512 58 101 5.0 7.0 0.00 0.00 0.00 45 1018.0
20260503011009 58 104 5.0 9.0 0.00 0.00 0.00 45 1018.0
20260503010520 59 106 6.0 8.0 0.00 0.00 0.00 44 1018.1
20260503010009 59 103 5.0 9.0 0.00 0.00 0.00 44 1018.2
20260503005512 59 114 6.0 9.0 0.00 0.00 0.00 44 1018.2
20260503005015 59 129 4.0 7.0 0.00 0.00 0.00 44 1018.2
20260503004509 59 112 5.0 8.0 0.00 0.00 0.00 44 1018.2
20260503004015 59 120 6.0 8.0 0.00 0.00 0.00 44 1018.3
20260503003511 59 110 6.0 8.0 0.00 0.00 0.00 44 1018.3
20260503003009 59 104 7.0 7.0 0.00 0.00 0.00 44 1018.3
20260503002512 59 107 8.0 8.0 0.00 0.00 0.00 44 1018.4
20260503002015 60 120 6.0 9.0 0.00 0.00 0.00 43 1018.4
20260503001509 60 119 5.0 8.0 0.00 0.00 0.00 43 1018.5
20260503001012 60 124 6.0 9.0 0.00 0.00 0.00 43 1018.5
20260503000511 60 135 4.0 8.0 0.00 0.00 0.00 43 1018.5
20260503000009 60 97 6.0 8.0 0.00 0.00 0.00 43 1018.6
20260502235509 60 118 7.0 8.0 0.00 0.00 0.00 43 1018.7
20260502235012 60 117 3.0 8.0 0.00 0.00 0.00 43 1018.8
20260502234509 60 106 5.0 8.0 0.00 0.00 0.00 43 1018.8
20260502234009 60 118 4.0 8.0 0.00 0.00 0.00 43 1018.8
20260502233514 60 102 4.0 8.0 0.00 0.00 0.00 43 1018.8
20260502233010 61 113 5.0 9.0 0.00 0.00 0.00 43 1018.8
20260502232512 61 104 7.0 8.0 0.00 0.00 0.00 43 1019.0
20260502232012 61 112 7.0 9.0 0.00 0.00 0.00 43 1019.0
20260502231509 61 104 5.0 9.0 0.00 0.00 0.00 43 1019.0
20260502231009 61 122 5.0 9.0 0.00 0.00 0.00 43 1019.0
20260502230514 61 127 4.0 9.0 0.00 0.00 0.00 43 1019.0
20260502230015 61 106 4.0 10.0 0.00 0.00 0.00 43 1019.1
20260502225512 61 118 8.0 8.0 0.00 0.00 0.00 43 1019.1
20260502225009 61 104 6.0 7.0 0.00 0.00 0.00 43 1019.1
20260502224515 61 106 6.0 8.0 0.00 0.00 0.00 42 1019.2
20260502224012 62 103 3.0 9.0 0.00 0.00 0.00 41 1019.2
20260502223511 62 93 7.0 9.0 0.00 0.00 0.00 41 1019.2
20260502223012 62 82 5.0 9.0 0.00 0.00 0.00 40 1019.2
20260502222515 63 122 4.0 8.0 0.00 0.00 0.00 39 1019.2
20260502222009 63 119 6.0 7.0 0.00 0.00 0.00 39 1019.2
20260502221512 63 100 6.0 8.0 0.00 0.00 0.00 39 1019.2
20260502221011 63 95 4.0 6.0 0.00 0.00 0.00 39 1019.3
20260502220518 64 99 5.0 7.0 0.00 0.00 0.00 39 1019.3
20260502220012 64 80 5.0 7.0 0.00 0.00 0.00 38 1019.3
20260502215509 64 79 5.0 7.0 0.00 0.00 0.00 38 1019.3
20260502215009 64 87 5.0 5.0 0.00 0.00 0.00 38 1019.3
20260502214509 64 90 4.0 5.0 0.00 0.00 0.00 38 1019.4
20260502214013 64 89 2.0 4.0 0.00 0.00 0.00 38 1019.4
20260502213509 64 80 4.0 4.0 0.00 0.00 0.00 38 1019.4
20260502213009 64 72 4.0 5.0 0.00 0.00 0.00 38 1019.3
20260502212509 64 67 1.0 5.0 0.00 0.00 0.00 38 1019.4
20260502212009 64 77 2.0 4.0 0.00 0.00 0.00 38 1019.4
20260502211512 64 75 0.0 2.0 0.00 0.00 0.00 38 1019.5
20260502211014 64 10 0.0 0.0 0.00 0.00 0.00 39 1019.4
20260502210512 64 10 0.0 0.0 0.00 0.00 0.00 39 1019.5
20260502210018 64 10 0.0 2.0 0.00 0.00 0.00 38 1019.5
20260502205509 64 10 1.0 3.0 0.00 0.00 0.00 38 1019.4
20260502205011 64 10 1.0 2.0 0.00 0.00 0.00 38 1019.5
20260502204518 64 10 2.0 4.0 0.00 0.00 0.00 37 1019.5
20260502204012 65 356 0.0 3.0 0.00 0.00 0.00 37 1019.5
20260502203509 65 356 1.0 2.0 0.00 0.00 0.00 37 1019.5
20260502203009 65 351 0.0 4.0 0.00 0.00 0.00 37 1019.6
20260502202509 66 7 2.0 3.0 0.00 0.00 0.00 36 1019.6
20260502202011 66 23 1.0 4.0 0.00 0.00 0.00 36 1019.6
20260502201518 66 35 2.0 4.0 0.00 0.00 0.00 36 1019.7
20260502201009 66 50 4.0 9.0 0.00 0.00 0.00 35 1019.7
20260502200509 66 45 4.0 4.0 0.00 0.00 0.00 36 1019.8
20260502200009 66 45 2.0 2.0 0.00 0.00 0.00 35 1019.7
20260502195515 67 45 0.0 2.0 0.00 0.00 0.00 35 1019.7
20260502195014 67 41 1.0 5.0 0.00 0.00 0.00 35 1019.6
20260502194509 67 35 1.0 5.0 0.00 0.00 0.00 34 1019.7
20260502194013 67 22 4.0 6.0 0.00 0.00 0.00 34 1019.7
20260502193512 68 29 1.0 7.0 0.00 0.00 0.00 34 1019.7
20260502193012 68 26 2.0 5.0 0.00 0.00 0.00 34 1019.6
20260502192509 68 18 5.0 6.0 0.00 0.00 0.00 33 1019.6
20260502192017 69 20 4.0 7.0 0.00 0.00 0.00 33 1019.6
20260502191512 69 33 2.0 6.0 0.00 0.00 0.00 33 1019.6
20260502191009 69 359 2.0 6.0 0.00 0.00 0.00 32 1019.6
20260502190509 69 326 1.0 5.0 0.00 0.00 0.00 33 1019.6
20260502190015 69 351 2.0 4.0 0.00 0.00 0.00 33 1019.6
20260502185509 69 1 0.0 3.0 0.00 0.00 0.00 32 1019.5
20260502185011 70 349 3.0 5.0 0.00 0.00 0.00 32 1019.6
20260502184513 70 332 2.0 6.0 0.00 0.00 0.00 31 1019.5
20260502184009 70 336 5.0 9.0 0.00 0.00 0.00 31 1019.5
20260502183512 70 346 5.0 7.0 0.00 0.00 0.00 31 1019.5
20260502182509 71 28 5.0 8.0 0.00 0.00 0.00 31 1019.5
20260502182011 71 0 5.0 7.0 0.00 0.00 0.00 31 1019.5
20260502181509 71 358 2.0 8.0 0.00 0.00 0.00 31 1019.5
20260502181009 71 11 7.0 8.0 0.00 0.00 0.00 31 1019.4
20260502180509 71 337 3.0 9.0 0.00 0.00 0.00 31 1019.4
20260502170509 74 50 2.0 7.0 0.00 0.00 0.00 25 1019.6
20260502164009 75 62 4.0 8.0 0.00 0.00 0.00 25 1019.7
20260502163512 75 72 2.0 7.0 0.00 0.00 0.00 25 1019.7
20260502163015 75 16 4.0 6.0 0.00 0.00 0.00 25 1019.7
20260502162514 75 38 5.0 8.0 0.00 0.00 0.00 24 1019.8
20260502162012 75 45 2.0 8.0 0.00 0.00 0.00 25 1019.9
20260502161509 75 43 5.0 11.0 0.00 0.00 0.00 25 1019.9
20260502161009 75 48 4.0 9.0 0.00 0.00 0.00 25 1019.9
20260502160512 75 72 5.0 9.0 0.00 0.00 0.00 24 1020.0
20260502152015 76 33 7.0 7.0 0.00 0.00 0.00 25 1020.3
20260502151509 76 23 2.0 8.0 0.00 0.00 0.00 25 1020.5
20260502151009 76 20 4.0 9.0 0.00 0.00 0.00 25 1020.5
20260502150512 76 77 4.0 8.0 0.00 0.00 0.00 24 1020.5
20260502130509 75 59 5.0 7.0 0.00 0.00 0.00 23 1021.9
20260502123512 74 316 4.0 6.0 0.00 0.00 0.00 25 1022.2
20260502123009 73 287 2.0 6.0 0.00 0.00 0.00 26 1022.2
20260502122509 73 63 2.0 8.0 0.00 0.00 0.00 26 1022.3
20260502122010 73 18 4.0 13.0 0.00 0.00 0.00 26 1022.4
20260502121509 74 326 2.0 5.0 0.00 0.00 0.00 26 1022.5
20260502121012 74 209 0.0 4.0 0.00 0.00 0.00 27 1022.4
20260502120515 73 183 3.0 5.0 0.00 0.00 0.00 28 1022.5
20260502115512 72 160 3.0 9.0 0.00 0.00 0.00 28 1022.7
20260502115020 73 8 6.0 13.0 0.00 0.00 0.00 28 1022.8
20260502114509 73 215 4.0 8.0 0.00 0.00 0.00 30 1022.7
20260502114012 73 206 1.0 4.0 0.00 0.00 0.00 32 1022.9
20260502113509 73 277 2.0 6.0 0.00 0.00 0.00 32 1023.0
20260502113012 72 322 2.0 4.0 0.00 0.00 0.00 32 1022.9
20260502112509 71 32 2.0 5.0 0.00 0.00 0.00 32 1023.0
20260502112017 72 342 4.0 8.0 0.00 0.00 0.00 33 1023.2
20260502111509 72 308 2.0 7.0 0.00 0.00 0.00 33 1023.2
20260502111009 71 343 5.0 8.0 0.00 0.00 0.00 33 1023.2
20260502110515 71 298 7.0 7.0 0.00 0.00 0.00 34 1023.4
20260502110012 72 320 2.0 6.0 0.00 0.00 0.00 33 1023.3
20260502105511 72 111 5.0 6.0 0.00 0.00 0.00 33 1023.4
20260502105012 72 196 1.0 5.0 0.00 0.00 0.00 35 1023.4
20260502104509 71 85 2.0 5.0 0.00 0.00 0.00 34 1023.6
20260502104015 71 139 3.0 6.0 0.00 0.00 0.00 34 1023.6
20260502103510 71 302 2.0 5.0 0.00 0.00 0.00 34 1023.7
20260502103015 70 4 4.0 5.0 0.00 0.00 0.00 36 1023.8
20260502102514 69 304 2.0 5.0 0.00 0.00 0.00 36 1023.8
20260502102009 70 342 2.0 6.0 0.00 0.00 0.00 36 1023.9
20260502101512 70 282 6.0 8.0 0.00 0.00 0.00 36 1023.9
20260502101012 70 87 1.0 8.0 0.00 0.00 0.00 36 1024.0
20260502100509 70 341 0.0 3.0 0.00 0.00 0.00 36 1024.0
20260502091509 68 16 4.0 7.0 0.00 0.00 0.00 39 1024.4
20260502091009 68 47 1.0 6.0 0.00 0.00 0.00 39 1024.5
20260502090509 67 321 3.0 5.0 0.00 0.00 0.00 40 1024.6
20260502071509 57 358 3.0 5.0 0.00 0.00 0.00 60 1025.2
20260502071009 57 102 2.0 4.0 0.00 0.00 0.00 61 1025.4
20260502070512 56 101 1.0 4.0 0.00 0.00 0.00 62 1025.3
20260502070012 55 48 0.0 4.0 0.00 0.00 0.00 63 1025.4
20260502065511 55 78 4.0 5.0 0.00 0.00 0.00 64 1025.4
20260502065009 55 72 2.0 5.0 0.00 0.00 0.00 64 1025.4
20260502064512 54 56 2.0 4.0 0.00 0.00 0.00 66 1025.5
20260502064009 53 79 2.0 5.0 0.00 0.00 0.00 66 1025.5
20260502063509 53 54 2.0 5.0 0.00 0.00 0.00 67 1025.4
20260502063012 53 108 2.0 5.0 0.00 0.00 0.00 67 1025.5
20260502062514 53 105 2.0 4.0 0.00 0.00 0.00 67 1025.5
20260502062009 53 70 4.0 4.0 0.00 0.00 0.00 68 1025.5
20260502061012 51 133 1.0 3.0 0.00 0.00 0.00 70 1025.5
20260502060512 51 133 1.0 3.0 0.00 0.00 0.00 71 1025.5
20260502060009 50 133 3.0 3.0 0.00 0.00 0.00 71 1025.5
20260502055510 50 133 2.0 3.0 0.00 0.00 0.00 70 1025.6
20260502055012 51 133 2.0 3.0 0.00 0.00 0.00 71 1025.5
20260502054512 50 133 2.0 3.0 0.00 0.00 0.00 72 1025.5
20260502054009 50 133 0.0 2.0 0.00 0.00 0.00 72 1025.5
20260502053515 49 127 2.0 3.0 0.00 0.00 0.00 73 1025.5
20260502053009 49 147 1.0 3.0 0.00 0.00 0.00 74 1025.5
20260502052513 48 115 2.0 4.0 0.00 0.00 0.00 73 1025.5
20260502052012 48 130 4.0 5.0 0.00 0.00 0.00 73 1025.6
20260502051509 48 124 4.0 6.0 0.00 0.00 0.00 73 1025.5
20260502051012 48 156 4.0 6.0 0.00 0.00 0.00 73 1025.5
20260502050512 48 127 5.0 5.0 0.00 0.00 0.00 73 1025.5
20260502050012 47 131 1.0 5.0 0.00 0.00 0.00 73 1025.5
20260502045510 47 108 2.0 4.0 0.00 0.00 0.00 73 1025.5
20260502045012 47 122 3.0 4.0 0.00 0.00 0.00 73 1025.5
20260502044512 47 130 4.0 5.0 0.00 0.00 0.00 73 1025.5
20260502044012 47 131 4.0 4.0 0.00 0.00 0.00 73 1025.5
20260502043512 47 139 3.0 4.0 0.00 0.00 0.00 74 1025.4
20260502043009 47 147 2.0 3.0 0.00 0.00 0.00 74 1025.4
20260502042519 47 147 1.0 3.0 0.00 0.00 0.00 73 1025.5
20260502042012 47 147 2.0 2.0 0.00 0.00 0.00 73 1025.6
20260502041512 47 147 1.0 2.0 0.00 0.00 0.00 72 1025.5
20260502041012 47 147 2.0 3.0 0.00 0.00 0.00 71 1025.6
20260502040509 48 147 3.0 3.0 0.00 0.00 0.00 71 1025.5
20260502040012 48 147 2.0 2.0 0.00 0.00 0.00 71 1025.5
20260502035517 48 147 1.0 2.0 0.00 0.00 0.00 70 1025.5
20260502035009 49 147 1.0 2.0 0.00 0.00 0.00 69 1025.6